NI0Z Weather Reports


Display with metric or nautical units.
time (UTC)temp
F
wind
direction
speed
MPH
gust
MPH
rain 1hr
in
rain 24hr
in
rain mn
in
humidity
%
barometer
mb
20260508084541 57 334 1.0 3.0 0.00 0.00 0.00 66
20260508084039 57 349 2.0 2.0 0.00 0.00 0.00 66
20260508083536 57 342 1.0 3.0 0.00 0.00 0.00 65
20260508083032 57 339 1.0 1.0 0.00 0.00 0.00 66
20260508082528 57 338 1.0 2.0 0.00 0.00 0.00 66
20260508082026 57 337 0.0 2.0 0.00 0.00 0.00 65
20260508081523 57 338 1.0 2.0 0.00 0.00 0.00 65
20260508081019 57 336 0.0 2.0 0.00 0.00 0.00 65
20260508080517 57 338 0.0 1.0 0.00 0.00 0.00 65
20260508080014 57 340 0.0 2.0 0.00 0.00 0.00 65
20260508075511 57 345 1.0 3.0 0.00 0.00 0.00 65
20260508075008 57 314 0.0 0.0 0.00 0.00 0.00 66
20260508074506 56 334 0.0 2.0 0.00 0.00 0.00 67
20260508074002 56 320 0.0 0.0 0.00 0.00 0.00 67
20260508073500 56 337 0.0 1.0 0.00 0.00 0.00 67
20260508072957 56 337 1.0 2.0 0.00 0.00 0.00 66
20260508072453 56 12 2.0 2.0 0.00 0.00 0.00 67
20260508071950 56 338 1.0 1.0 0.00 0.00 0.00 67
20260508071448 56 334 0.0 0.0 0.00 0.00 0.00 68
20260508070945 56 344 1.0 1.0 0.00 0.00 0.00 68
20260508070443 55 340 1.0 2.0 0.00 0.00 0.00 68
20260508065941 55 345 3.0 3.0 0.00 0.00 0.00 68
20260508065439 55 337 0.0 2.0 0.00 0.00 0.00 69
20260508064937 55 337 1.0 2.0 0.00 0.00 0.00 69
20260508064434 55 334 0.0 1.0 0.00 0.00 0.00 69
20260508063931 55 337 0.0 2.0 0.00 0.00 0.00 68
20260508063429 56 338 1.0 1.0 0.00 0.00 0.00 68
20260508062926 56 340 0.0 3.0 0.00 0.00 0.00 68
20260508062424 56 335 1.0 2.0 0.00 0.00 0.00 68
20260508061921 56 334 0.0 1.0 0.00 0.00 0.00 67
20260508061418 56 3 2.0 2.0 0.00 0.00 0.00 67
20260508060914 56 335 1.0 3.0 0.00 0.00 0.00 67
20260508060412 56 340 0.0 2.0 0.00 0.00 0.00 67
20260508055907 56 333 1.0 2.0 0.00 0.00 0.00 67
20260508055405 57 332 0.0 2.0 0.00 0.00 0.00 67
20260508054901 57 341 1.0 3.0 0.00 0.00 0.00 66
20260508054358 57 342 1.0 3.0 0.00 0.00 0.00 66
20260508053855 57 336 1.0 1.0 0.00 0.00 0.00 66
20260508053352 57 338 0.0 1.0 0.00 0.00 0.00 66
20260508052850 57 350 1.0 2.0 0.00 0.00 0.00 65
20260508052347 57 336 1.0 2.0 0.00 0.00 0.00 66
20260508051843 57 330 0.0 1.0 0.00 0.00 0.00 65
20260508051338 57 25 2.0 2.0 0.00 0.00 0.00 65
20260508050835 58 343 1.0 5.0 0.00 0.00 0.00 65
20260508050333 58 348 0.0 3.0 0.00 0.00 0.00 64
20260508045828 58 345 1.0 3.0 0.00 0.00 0.00 64
20260508045326 58 346 2.0 2.0 0.00 0.00 0.00 64
20260508044823 58 329 3.0 5.0 0.00 0.00 0.00 64
20260508044320 58 338 1.0 2.0 0.00 0.00 0.00 64
20260508043816 58 354 3.0 3.0 0.00 0.00 0.00 64
20260508043313 59 344 2.0 3.0 0.00 0.00 0.00 63
20260508042810 59 342 1.0 2.0 0.00 0.00 0.00 64
20260508042308 59 338 1.0 3.0 0.00 0.00 0.00 63
20260508041804 59 350 1.0 2.0 0.00 0.00 0.00 63
20260508041301 59 347 1.0 5.0 0.00 0.00 0.00 62
20260508040757 59 34 3.0 3.0 0.00 0.00 0.00 62
20260508040255 59 345 2.0 2.0 0.00 0.00 0.00 62
20260508035752 59 338 2.0 2.0 0.00 0.00 0.00 62
20260508035249 60 357 2.0 3.0 0.00 0.00 0.00 62
20260508034745 60 355 2.0 5.0 0.00 0.00 0.00 61
20260508034243 60 338 1.0 2.0 0.00 0.00 0.00 61
20260508033740 60 355 1.0 3.0 0.00 0.00 0.00 61
20260508033238 60 335 0.0 5.0 0.00 0.00 0.00 61
20260508032735 60 337 1.0 3.0 0.00 0.00 0.00 60
20260508032232 60 330 0.0 0.0 0.00 0.00 0.00 60
20260508031729 60 351 2.0 3.0 0.00 0.00 0.00 59
20260508031225 61 338 0.0 3.0 0.00 0.00 0.00 59
20260508030722 61 336 3.0 6.0 0.00 0.00 0.00 59
20260508030220 61 341 0.0 2.0 0.00 0.00 0.00 59
20260508025716 61 350 5.0 6.0 0.00 0.00 0.00 59
20260508025213 61 334 0.0 2.0 0.00 0.00 0.00 59
20260508024709 61 337 0.0 1.0 0.00 0.00 0.00 59
20260508024206 61 336 0.0 2.0 0.00 0.00 0.00 59
20260508023702 61 354 1.0 3.0 0.00 0.00 0.00 59
20260508023200 61 332 1.0 2.0 0.00 0.00 0.00 58
20260508022655 61 8 1.0 2.0 0.00 0.00 0.00 58
20260508022153 61 335 0.0 2.0 0.00 0.00 0.00 58
20260508021649 61 337 0.0 3.0 0.00 0.00 0.00 58
20260508021144 62 336 1.0 2.0 0.00 0.00 0.00 57
20260508020642 62 336 1.0 3.0 0.00 0.00 0.00 57
20260508020140 62 333 1.0 5.0 0.00 0.00 0.00 57
20260508015637 62 2 2.0 2.0 0.00 0.00 0.00 56
20260508015134 62 350 1.0 5.0 0.00 0.00 0.00 56
20260508014630 62 336 0.0 0.0 0.00 0.00 0.00 56
20260508014126 63 335 1.0 2.0 0.00 0.00 0.00 56
20260508013623 63 350 2.0 2.0 0.00 0.00 0.00 55
20260508013120 63 344 1.0 5.0 0.00 0.00 0.00 55
20260508012617 63 336 0.0 2.0 0.00 0.00 0.00 54
20260508012114 64 334 1.0 3.0 0.00 0.00 0.00 54
20260508011613 64 340 1.0 3.0 0.00 0.00 0.00 53
20260508011110 64 334 0.0 1.0 0.00 0.00 0.00 53
20260508010606 64 335 0.0 0.0 0.00 0.00 0.00 53
20260508010105 64 336 0.0 3.0 0.00 0.00 0.00 52
20260508005601 65 336 0.0 1.0 0.00 0.00 0.00 52
20260508005057 65 337 0.0 0.0 0.00 0.00 0.00 51
20260508004553 65 347 0.0 1.0 0.00 0.00 0.00 50
20260508004050 65 336 0.0 2.0 0.00 0.00 0.00 49
20260508003546 65 336 1.0 1.0 0.00 0.00 0.00 50
20260508003044 66 334 0.0 0.0 0.00 0.00 0.00 49
20260508002540 66 333 0.0 0.0 0.00 0.00 0.00 48
20260508002038 66 329 0.0 0.0 0.00 0.00 0.00 48
20260508001533 66 318 0.0 1.0 0.00 0.00 0.00 49
20260508001029 67 333 0.0 0.0 0.00 0.00 0.00 47
20260508000525 67 331 0.0 0.0 0.00 0.00 0.00 47
20260508000023 68 327 0.0 0.0 0.00 0.00 0.00 49
20260507235519 68 323 0.0 1.0 0.00 0.00 0.00 46
20260507235017 69 271 0.0 1.0 0.00 0.00 0.00 47
20260507234513 69 326 0.0 0.0 0.00 0.00 0.00 45
20260507234010 69 315 0.0 1.0 0.00 0.00 0.00 45
20260507233506 69 318 0.0 2.0 0.00 0.00 0.00 47
20260507233006 68 338 1.0 1.0 0.00 0.00 0.00 46
20260507232501 68 339 0.0 0.0 0.00 0.00 0.00 48
20260507231959 68 326 0.0 0.0 0.00 0.00 0.00 47
20260507231455 68 322 0.0 0.0 0.00 0.00 0.00 47
20260507230952 68 323 0.0 0.0 0.00 0.00 0.00 48
20260507230449 68 355 0.0 0.0 0.00 0.00 0.00 48
20260507225944 68 352 0.0 0.0 0.00 0.00 0.00 48
20260507225440 68 333 0.0 1.0 0.00 0.00 0.00 47
20260507224937 67 328 0.0 2.0 0.00 0.00 0.00 47
20260507224432 67 318 1.0 3.0 0.00 0.00 0.00 47
20260507223930 67 335 0.0 0.0 0.00 0.00 0.00 47
20260507223426 67 326 0.0 2.0 0.00 0.00 0.00 48
20260507222922 67 16 1.0 2.0 0.00 0.00 0.00 48
20260507222420 67 18 2.0 5.0 0.00 0.00 0.00 47
20260507221916 67 10 0.0 3.0 0.00 0.00 0.00 47
20260507221413 67 283 0.0 0.0 0.00 0.00 0.00 50
20260507220908 68 327 1.0 3.0 0.00 0.00 0.00 47
20260507220407 68 332 0.0 2.0 0.00 0.00 0.00 46
20260507215903 68 347 3.0 3.0 0.00 0.00 0.00 48
20260507215400 68 311 0.0 2.0 0.00 0.00 0.00 46
20260507214857 68 319 0.0 5.0 0.00 0.00 0.00 48
20260507214355 68 340 1.0 2.0 0.00 0.00 0.00 48
20260507213850 68 323 1.0 8.0 0.00 0.00 0.00 49
20260507213347 69 333 0.0 2.0 0.00 0.00 0.00 49
20260507212844 68 341 1.0 6.0 0.00 0.00 0.00 48
20260507212340 68 326 2.0 3.0 0.00 0.00 0.00 49
20260507211836 68 0 1.0 3.0 0.00 0.00 0.00 48
20260507211333 67 240 1.0 2.0 0.00 0.00 0.00 49
20260507210830 67 292 0.0 2.0 0.00 0.00 0.00 49
20260507210327 68 85 2.0 3.0 0.00 0.00 0.00 48
20260507205823 67 48 2.0 5.0 0.00 0.00 0.00 48
20260507205321 68 64 4.0 6.0 0.00 0.00 0.00 51
20260507204816 67 163 0.0 1.0 0.00 0.00 0.00 50
20260507204314 67 159 1.0 6.0 0.00 0.00 0.00 51
20260507203812 66 330 0.0 2.0 0.00 0.00 0.00 51
20260507203304 66 167 2.0 3.0 0.00 0.00 0.00 50
20260507202800 67 141 2.0 6.0 0.00 0.00 0.00 51
20260507202255 67 323 1.0 1.0 0.00 0.00 0.00 52
20260507201750 66 354 1.0 3.0 0.00 0.00 0.00 51
20260507201247 67 328 0.0 5.0 0.00 0.00 0.00 50
20260507200744 65 336 3.0 5.0 0.00 0.00 0.00 51
20260507200239 67 43 2.0 2.0 0.00 0.00 0.00 50
20260507195736 67 299 0.0 2.0 0.00 0.00 0.00 55
20260507195234 67 195 1.0 3.0 0.00 0.00 0.00 53
20260507194731 66 6 0.0 2.0 0.00 0.00 0.00 53
20260507194226 66 19 1.0 3.0 0.00 0.00 0.00 51
20260507193723 65 7 1.0 3.0 0.00 0.00 0.00 51
20260507193220 66 194 3.0 6.0 0.00 0.00 0.00 53
20260507192716 65 306 2.0 7.0 0.00 0.00 0.00 53
20260507192213 66 14 4.0 6.0 0.00 0.00 0.00 52
20260507191709 65 355 1.0 6.0 0.00 0.00 0.00 56
20260507191207 64 357 2.0 6.0 0.00 0.00 0.00 54
20260507190703 64 336 1.0 7.0 0.00 0.00 0.00 56
20260507190202 64 84 3.0 7.0 0.00 0.00 0.00 55
20260507185700 64 337 0.0 8.0 0.00 0.00 0.00 55
20260507185156 63 348 2.0 3.0 0.00 0.00 0.00 55
20260507184654 64 227 2.0 3.0 0.00 0.00 0.00 55
20260507184151 63 65 2.0 7.0 0.00 0.00 0.00 56
20260507183648 63 162 4.0 5.0 0.00 0.00 0.00 55
20260507183145 64 188 4.0 7.0 0.00 0.00 0.00 53
20260507182643 63 128 2.0 3.0 0.00 0.00 0.00 57
20260507182137 63 336 2.0 6.0 0.00 0.00 0.00 55
20260507181634 63 7 1.0 3.0 0.00 0.00 0.00 59
20260507181131 61 346 2.0 2.0 0.00 0.00 0.00 59
20260507180627 62 27 2.0 5.0 0.00 0.00 0.00 58
20260507180124 63 34 1.0 5.0 0.00 0.00 0.00 59
20260507175620 61 354 2.0 5.0 0.00 0.00 0.00 57
20260507175118 62 343 2.0 3.0 0.00 0.00 0.00 58
20260507174614 61 336 2.0 3.0 0.00 0.00 0.00 58
20260507174112 62 102 3.0 6.0 0.00 0.00 0.00 60
20260507173609 62 335 3.0 7.0 0.00 0.00 0.00 58
20260507173106 62 69 2.0 5.0 0.00 0.00 0.00 58
20260507172602 61 46 3.0 5.0 0.00 0.00 0.00 57
20260507172100 62 202 2.0 5.0 0.00 0.00 0.00 58
20260507171554 62 325 2.0 5.0 0.00 0.00 0.00 57
20260507171052 62 333 1.0 2.0 0.00 0.00 0.00 58
20260507170549 62 13 1.0 3.0 0.00 0.00 0.00 59
20260507170046 61 343 3.0 7.0 0.00 0.00 0.00 58
20260507165541 60 317 0.0 8.0 0.00 0.00 0.00 61
20260507165038 60 166 1.0 5.0 0.00 0.00 0.00 60
20260507164534 61 314 1.0 5.0 0.00 0.00 0.00 58
20260507164031 59 325 0.0 2.0 0.00 0.00 0.00 62
20260507163528 59 323 2.0 3.0 0.00 0.00 0.00 62
20260507163027 60 1 1.0 3.0 0.00 0.00 0.00 60
20260507162521 59 345 0.0 5.0 0.00 0.00 0.00 62
20260507162018 60 0 2.0 3.0 0.00 0.00 0.00 61
20260507161514 59 184 3.0 7.0 0.00 0.00 0.00 62
20260507161012 59 330 1.0 2.0 0.00 0.00 0.00 63
20260507160507 60 334 1.0 2.0 0.00 0.00 0.00 60
20260507160004 59 330 1.0 2.0 0.00 0.00 0.00 62
20260507155459 58 89 3.0 5.0 0.00 0.00 0.00 62
20260507154956 58 42 1.0 3.0 0.00 0.00 0.00 62
20260507154453 58 269 2.0 2.0 0.00 0.00 0.00 63
20260507153950 58 107 2.0 3.0 0.00 0.00 0.00 62
20260507153447 58 63 2.0 3.0 0.00 0.00 0.00 63
20260507152943 58 333 1.0 3.0 0.00 0.00 0.00 64
20260507152439 57 344 1.0 2.0 0.00 0.00 0.00 65
20260507151935 57 222 0.0 1.0 0.00 0.00 0.00 65
20260507151432 57 73 2.0 3.0 0.00 0.00 0.00 65
20260507150929 57 293 1.0 2.0 0.00 0.00 0.00 66
20260507150426 57 234 2.0 3.0 0.00 0.00 0.00 66
20260507145922 56 358 1.0 3.0 0.00 0.00 0.00 65
20260507145418 56 321 0.0 3.0 0.00 0.00 0.00 66
20260507144915 56 27 0.0 3.0 0.00 0.00 0.00 65
20260507144412 56 4 1.0 3.0 0.00 0.00 0.00 66
20260507143909 55 248 3.0 7.0 0.00 0.00 0.00 66
20260507143406 55 332 0.0 2.0 0.00 0.00 0.00 67
20260507142903 55 353 1.0 2.0 0.00 0.00 0.00 67
20260507142358 55 345 1.0 3.0 0.00 0.00 0.00 67
20260507141856 54 358 2.0 2.0 0.00 0.00 0.00 67
20260507141352 54 328 0.0 1.0 0.00 0.00 0.00 68
20260507140849 54 324 0.0 1.0 0.00 0.00 0.00 67
20260507140345 53 343 0.0 0.0 0.00 0.00 0.00 69
20260507135844 53 332 0.0 0.0 0.00 0.00 0.00 70
20260507135340 52 316 0.0 0.0 0.00 0.00 0.00 70
20260507134838 52 321 2.0 3.0 0.00 0.00 0.00 70
20260507134333 52 311 0.0 0.0 0.00 0.00 0.00 71
20260507133829 51 334 0.0 0.0 0.00 0.00 0.00 72
20260507133325 51 274 0.0 0.0 0.00 0.00 0.00 72
20260507132824 51 352 0.0 1.0 0.00 0.00 0.00 72
20260507132319 50 255 0.0 0.0 0.00 0.00 0.00 73
20260507131817 50 13 0.0 0.0 0.00 0.00 0.00 73
20260507131314 50 323 0.0 0.0 0.00 0.00 0.00 73
20260507130810 49 318 0.0 2.0 0.00 0.00 0.00 74
20260507130308 49 323 0.0 0.0 0.00 0.00 0.00 74
20260507125807 49 317 0.0 0.0 0.00 0.00 0.00 75
20260507125306 48 325 0.0 0.0 0.00 0.00 0.00 75
20260507124801 48 340 0.0 0.0 0.00 0.00 0.00 74
20260507124257 48 6 0.0 0.0 0.00 0.00 0.00 75
20260507123756 47 340 0.0 0.0 0.00 0.00 0.00 75
20260507123253 47 331 0.0 0.0 0.00 0.00 0.00 75
20260507122748 46 335 0.0 0.0 0.00 0.00 0.00 76
20260507122244 46 337 0.0 1.0 0.00 0.00 0.00 76
20260507121740 46 344 0.0 0.0 0.00 0.00 0.00 76
20260507121236 45 328 0.0 0.0 0.00 0.00 0.00 77
20260507120732 45 336 0.0 0.0 0.00 0.00 0.00 77
20260507120230 45 335 0.0 0.0 0.00 0.00 0.00 77
20260507115726 45 337 0.0 0.0 0.00 0.00 0.00 77
20260507115222 44 346 0.0 0.0 0.00 0.00 0.00 76
20260507114717 45 342 0.0 0.0 0.00 0.00 0.00 76
20260507114215 45 340 0.0 0.0 0.00 0.00 0.00 75
20260507113712 44 337 0.0 0.0 0.00 0.00 0.00 75
20260507113209 45 335 0.0 0.0 0.00 0.00 0.00 75
20260507112707 45 335 0.0 0.0 0.00 0.00 0.00 75
20260507112203 45 335 0.0 0.0 0.00 0.00 0.00 75
20260507111701 45 338 0.0 0.0 0.00 0.00 0.00 75
20260507111157 44 335 0.0 0.0 0.00 0.00 0.00 75
20260507110653 44 335 0.0 0.0 0.00 0.00 0.00 74
20260507110150 44 335 0.0 0.0 0.00 0.00 0.00 74
20260507105647 44 339 0.0 0.0 0.00 0.00 0.00 74
20260507105143 44 335 0.0 0.0 0.00 0.00 0.00 74
20260507104641 44 335 0.0 0.0 0.00 0.00 0.00 73
20260507104137 44 339 0.0 0.0 0.00 0.00 0.00 73
20260507103633 44 339 0.0 0.0 0.00 0.00 0.00 73
20260507103130 44 340 0.0 0.0 0.00 0.00 0.00 72
20260507102626 44 339 0.0 0.0 0.00 0.00 0.00 72
20260507102123 44 335 0.0 0.0 0.00 0.00 0.00 72
20260507101618 44 335 0.0 0.0 0.00 0.00 0.00 72
20260507101115 44 336 0.0 0.0 0.00 0.00 0.00 71
20260507100612 45 335 0.0 0.0 0.00 0.00 0.00 70
20260507100110 45 339 0.0 0.0 0.00 0.00 0.00 70
20260507095608 45 340 0.0 0.0 0.00 0.00 0.00 69
20260507095104 45 336 0.0 0.0 0.00 0.00 0.00 70
20260507094600 45 335 0.0 0.0 0.00 0.00 0.00 70
20260507094057 45 335 0.0 0.0 0.00 0.00 0.00 69
20260507093555 45 335 0.0 0.0 0.00 0.00 0.00 69
20260507093053 44 335 0.0 0.0 0.00 0.00 0.00 69
20260507092549 44 335 0.0 0.0 0.00 0.00 0.00 69
20260507092046 44 335 0.0 0.0 0.00 0.00 0.00 68
20260507091543 45 335 0.0 0.0 0.00 0.00 0.00 68
20260507091039 45 335 0.0 0.0 0.00 0.00 0.00 68
20260507090535 45 335 0.0 0.0 0.00 0.00 0.00 68
20260507090032 45 335 0.0 0.0 0.00 0.00 0.00 68
20260507085529 45 335 0.0 0.0 0.00 0.00 0.00 68
20260507085026 45 335 0.0 0.0 0.00 0.00 0.00 67